Torna al catalogo

STARLINK-5578

AttivoComunicazioniVLEO
NORAD 55374·PAYLOAD·🇺🇸 United States

Lanciato Jan 26, 2023 da Cape Canaveral Space Force Station

Loading…

Prossimi Passaggi (prossime 24 ore)

TLE

AggiornatoSource: CelesTrak SupGP

Epoca: Sep 14, 2026, 21:00 UTC

1 55374C 23013AV  26257.87548611 -.00033889  00000+0 -12274-2 0  2572
2 55374  43.0044 333.4144 0002220 282.5484  59.9687 15.27595923    15

Traccia STARLINK-5578 in tempo reale con AllMySat

Download on the App Store